York, PA

3:26 PM EDT on May 22, 2017 (GMT -0400)
York

Weather History for KTHV - October, 2011

Change the Weather History Date:

Sunday, October 9, 2011

  Actual Average Record
Temperature  
Mean Temperature 60 °F -  
Max Temperature 80 °F 0 °F 89 °F (2007)
Min Temperature 42 °F - 21 °F (2001)
Degree Days  
Heating Degree Days 4    
Growing Degree Days 10 (Base 50)    
Moisture  
Dew Point 47 °F    
Average Humidity 86    
Maximum Humidity 100    
Minimum Humidity 40    
Precipitation  
Precipitation 0.00 in - - ()
Sea Level Pressure  
Sea Level Pressure 30.43 in    
Wind  
Wind Speed 0 mph (WSW)    
Max Wind Speed 5 mph    
Max Gust Speed -    
Visibility 5 miles    
Events      
Averages and records for this station are not official NWS values.
T = Trace of Precipitation, MM = Missing Value Source: NWS Daily Summary

Daily Weather History Graph

Daily Weather History Graph

Search for Another Location

Airport or City:

Trip Planner

Search our weather history database for the weather conditions in past years. The results will help you decide how hot, cold, wet, or windy it might be!

Date:

Astronomy

Oct. 09, 2011 Rise Set
Actual Time 7:11 AM EDT 6:37 PM EDT
Civil Twilight 6:44 AM EDT 7:04 PM EDT
Nautical Twilight 6:12 AM EDT 7:35 PM EDT
Astronomical Twilight 5:41 AM EDT 8:07 PM EDT
Moon 5:13 PM EDT (10/9) 4:54 AM EDT (10/9)
Length of Visible Light 12h 20m
Length of Day
11h 26m
Waxing Gibbous, 95% of the Moon is Illuminated
Oct 9
Waxing Gibbous
Oct 11
Full
Oct 19
Last Quarter
Oct 26
New
Nov 2
First Quarter

Hourly Weather History & Observations

Time (EDT) Temp. Dew Point Humidity Pressure Visibility Wind Dir Wind Speed Gust Speed Precip Events Conditions
12:53 AM 46.9 °F 46.0 °F 97% 30.48 in 5.0 mi Calm Calm - N/A   Clear
3:53 AM 45.0 °F 43.0 °F 93% 30.46 in 6.0 mi Calm Calm - N/A   Clear
4:30 AM 44.6 °F 42.8 °F 93% 30.44 in 1.5 mi Calm Calm - N/A   Clear
4:32 AM 44.6 °F 42.8 °F 93% 30.44 in 0.8 mi Calm Calm - N/A   Mist
4:53 AM 44.1 °F 42.1 °F 93% 30.45 in 0.8 mi Calm Calm - N/A   Mist
5:00 AM 44.6 °F 42.8 °F 93% 30.44 in 1.2 mi Calm Calm - N/A   Scattered Clouds
5:05 AM 44.6 °F 42.8 °F 93% 30.44 in 2.5 mi Calm Calm - N/A   Partly Cloudy
5:11 AM 44.6 °F 42.8 °F 93% 30.44 in 1.8 mi Calm Calm - N/A   Clear
5:24 AM 44.6 °F 42.8 °F 93% 30.44 in 2.5 mi Calm Calm - N/A   Clear
5:37 AM 42.8 °F 42.8 °F 100% 30.45 in 1.8 mi Calm Calm - N/A   Clear
5:42 AM 42.8 °F 42.8 °F 100% 30.45 in 2.5 mi Calm Calm - N/A   Clear
5:47 AM 42.8 °F 42.8 °F 100% 30.45 in 1.8 mi Calm Calm - N/A   Clear
5:53 AM 43.0 °F 42.1 °F 97% 30.46 in 1.0 mi Calm Calm - N/A   Clear
5:59 AM 42.8 °F 42.8 °F 100% 30.45 in 2.0 mi Calm Calm - N/A   Clear
6:01 AM 42.8 °F 42.8 °F 100% 30.45 in 3.0 mi Calm Calm - N/A   Clear
6:15 AM 42.8 °F 41.0 °F 93% 30.45 in 3.0 mi Calm Calm - N/A   Scattered Clouds
6:53 AM 44.1 °F 42.1 °F 93% 30.47 in 5.0 mi Calm Calm - N/A   Partly Cloudy
7:04 AM 42.8 °F 42.8 °F 100% 30.46 in 2.0 mi Calm Calm - N/A   Partly Cloudy
7:12 AM 42.8 °F 41.0 °F 93% 30.46 in 3.0 mi Calm Calm - N/A   Partly Cloudy
7:19 AM 42.8 °F 42.8 °F 100% 30.46 in 2.0 mi Calm Calm - N/A   Clear
7:28 AM 42.8 °F 41.0 °F 93% 30.46 in 3.0 mi Calm Calm - N/A   Clear
7:53 AM 45.0 °F 44.1 °F 97% 30.48 in 4.0 mi Calm Calm - N/A   Clear
8:53 AM 54.0 °F 52.0 °F 93% 30.49 in 4.0 mi Calm Calm - N/A   Clear
9:53 AM 61.0 °F 55.0 °F 81% 30.49 in 10.0 mi Calm Calm - N/A   Clear
10:53 AM 68.0 °F 54.0 °F 61% 30.48 in 10.0 mi Calm Calm - N/A   Clear
11:53 AM 72.0 °F 53.1 °F 51% 30.46 in 10.0 mi NW 3.5 mph - N/A   Clear
12:53 PM 75.0 °F 54.0 °F 48% 30.44 in 10.0 mi Calm Calm - N/A   Clear
1:53 PM 77.0 °F 52.0 °F 42% 30.41 in 10.0 mi Calm Calm - N/A   Clear
3:53 PM 79.0 °F 54.0 °F 42% 30.38 in 10.0 mi SSW 4.6 mph - N/A   Clear
4:53 PM 78.1 °F 52.0 °F 40% 30.37 in 8.0 mi WSW 3.5 mph - N/A   Clear
5:53 PM 73.0 °F 55.9 °F 55% 30.36 in 10.0 mi Calm Calm - N/A   Clear
6:53 PM 61.0 °F 55.0 °F 81% 30.37 in 10.0 mi Calm Calm - N/A   Clear
7:53 PM 54.0 °F 52.0 °F 93% 30.37 in 10.0 mi Calm Calm - N/A   Clear
8:53 PM 53.1 °F 51.1 °F 93% 30.37 in 9.0 mi Calm Calm - N/A   Clear
9:53 PM 51.1 °F 50.0 °F 96% 30.37 in 6.0 mi Calm Calm - N/A   Clear
10:53 PM 50.0 °F 48.0 °F 93% 30.37 in 4.0 mi Calm Calm - N/A   Clear
11:53 PM 48.9 °F 48.0 °F 97% 30.36 in 5.0 mi Calm Calm - N/A   Clear